User: anonymous
Location: Muenchen
(48.1800°N, 11.5800°E)
Time: 00:15:50
(UTC+02:00)
Language:

Sich 1 Rocket - Orbit

View from above orbital plane
View from above orbital plane
View from above satellite
View from above satellite

Ground track
Ground track

The orbit data is extracted from the following two-line orbital elements,

1 23659U 95046C   14265.11880207  .00000275  00000-0  34967-4 0   240
2 23659 082.5313 152.2773 0024429 259.9153 257.0033 14.77815306 26966
Epoch (UTC): 22 September 2014 02:51:04
Eccentricity: 0.0024429
inclination: 82.5313°
perigee height: 619 km
apogee height: 653 km
right ascension of ascending node: 152.2773°
argument of perigee: 259.9153°
revolutions per day: 14.77815306
mean anomaly at epoch: 257.0033°
orbit number at epoch: 2696

The dashed part of the orbit path shows where the satellite is in the earth's shadow,  

DLR